TimeMST,TemperatureF,Dew PointF,Humidity,Sea Level PressureIn,VisibilityMPH,Wind Direction,Wind SpeedMPH,Gust SpeedMPH,PrecipitationIn,Events,Conditions,WindDirDegrees,DateUTC
12:15 AM,44.6,28.4,53,30.17,10.0,SW,8.1,-,N/A,,Clear,230,2012-11-29 07:15:00
12:35 AM,44.6,28.4,53,30.18,10.0,SW,5.8,-,N/A,,Clear,230,2012-11-29 07:35:00
12:55 AM,44.6,28.4,53,30.17,10.0,WSW,5.8,-,N/A,,Clear,250,2012-11-29 07:55:00
1:15 AM,44.6,28.4,53,30.16,10.0,WSW,8.1,-,N/A,,Clear,240,2012-11-29 08:15:00
1:35 AM,44.6,28.4,53,30.15,10.0,WSW,13.8,-,N/A,,Clear,240,2012-11-29 08:35:00
1:55 AM,44.6,28.4,53,30.16,10.0,West,15.0,-,N/A,,Clear,260,2012-11-29 08:55:00
2:15 AM,44.6,28.4,53,30.16,10.0,WSW,11.5,-,N/A,,Clear,240,2012-11-29 09:15:00
2:35 AM,42.8,28.4,57,30.15,10.0,SW,9.2,-,N/A,,Clear,230,2012-11-29 09:35:00
2:55 AM,39.2,26.6,61,30.15,10.0,SW,10.4,-,N/A,,Clear,230,2012-11-29 09:55:00
3:15 AM,41.0,28.4,61,30.13,10.0,SW,11.5,-,N/A,,Clear,230,2012-11-29 10:15:00
3:35 AM,42.8,28.4,57,30.13,10.0,WSW,10.4,-,N/A,,Clear,240,2012-11-29 10:35:00
3:55 AM,42.8,28.4,57,30.12,10.0,WSW,12.7,-,N/A,,Clear,250,2012-11-29 10:55:00
4:15 AM,44.6,30.2,57,30.12,10.0,West,17.3,-,N/A,,Clear,260,2012-11-29 11:15:00
4:35 AM,44.6,28.4,53,30.12,10.0,WSW,16.1,-,N/A,,Clear,250,2012-11-29 11:35:00
4:55 AM,42.8,28.4,57,30.11,10.0,WSW,13.8,-,N/A,,Clear,240,2012-11-29 11:55:00
5:15 AM,42.8,28.4,57,30.11,10.0,WSW,12.7,-,N/A,,Clear,240,2012-11-29 12:15:00
5:35 AM,42.8,28.4,57,30.11,10.0,WSW,15.0,-,N/A,,Clear,240,2012-11-29 12:35:00
5:55 AM,42.8,28.4,57,30.11,10.0,WSW,17.3,-,N/A,,Clear,240,2012-11-29 12:55:00
6:15 AM,42.8,30.2,61,30.12,10.0,WSW,17.3,-,N/A,,Clear,240,2012-11-29 13:15:00
6:35 AM,42.8,28.4,57,30.12,10.0,WSW,15.0,-,N/A,,Clear,240,2012-11-29 13:35:00
6:55 AM,41.0,28.4,61,30.12,10.0,WSW,12.7,-,N/A,,Clear,250,2012-11-29 13:55:00
7:15 AM,41.0,28.4,61,30.12,10.0,WSW,12.7,-,N/A,,Clear,250,2012-11-29 14:15:00
7:35 AM,42.8,30.2,61,30.12,10.0,WSW,15.0,-,N/A,,Clear,250,2012-11-29 14:35:00
7:55 AM,46.4,30.2,53,30.13,10.0,WSW,16.1,-,N/A,,Clear,240,2012-11-29 14:55:00
8:15 AM,48.2,32.0,54,30.13,10.0,WSW,18.4,-,N/A,,Clear,250,2012-11-29 15:15:00
8:35 AM,50.0,33.8,54,30.13,10.0,WSW,17.3,-,N/A,,Clear,250,2012-11-29 15:35:00
9:15 AM,53.6,32.0,44,30.14,10.0,WSW,15.0,-,N/A,,Clear,250,2012-11-29 16:15:00
9:35 AM,55.4,32.0,41,30.14,10.0,WSW,15.0,-,N/A,,Clear,250,2012-11-29 16:35:00
9:55 AM,57.2,33.8,41,30.13,10.0,WSW,15.0,-,N/A,,Clear,250,2012-11-29 16:55:00
10:15 AM,60.8,33.8,36,30.13,10.0,WSW,16.1,-,N/A,,Clear,240,2012-11-29 17:15:00
10:35 AM,62.6,30.2,30,30.13,10.0,West,18.4,26.5,N/A,,Clear,270,2012-11-29 17:35:00
10:55 AM,64.4,30.2,28,30.12,10.0,West,20.7,26.5,N/A,,Clear,270,2012-11-29 17:55:00
11:15 AM,66.2,30.2,26,30.11,10.0,West,21.9,-,N/A,,Clear,270,2012-11-29 18:15:00
11:35 AM,66.2,30.2,26,30.10,10.0,West,19.6,26.5,N/A,,Clear,280,2012-11-29 18:35:00
11:55 AM,68.0,30.2,24,30.09,10.0,West,23.0,26.5,N/A,,Clear,270,2012-11-29 18:55:00
12:15 PM,68.0,30.2,24,30.08,10.0,West,21.9,27.6,N/A,,Clear,270,2012-11-29 19:15:00
12:35 PM,69.8,30.2,23,30.08,10.0,West,21.9,25.3,N/A,,Clear,270,2012-11-29 19:35:00
12:55 PM,69.8,28.4,21,30.07,10.0,West,15.0,-,N/A,,Clear,270,2012-11-29 19:55:00
1:15 PM,69.8,30.2,23,30.06,10.0,West,19.6,-,N/A,,Clear,280,2012-11-29 20:15:00
1:35 PM,69.8,28.4,21,30.05,10.0,West,19.6,28.8,N/A,,Clear,280,2012-11-29 20:35:00
1:55 PM,71.6,28.4,20,30.05,10.0,West,20.7,-,N/A,,Clear,280,2012-11-29 20:55:00
2:15 PM,71.6,28.4,20,30.05,10.0,West,19.6,24.2,N/A,,Clear,260,2012-11-29 21:15:00
2:35 PM,71.6,28.4,20,30.04,10.0,West,15.0,24.2,N/A,,Clear,280,2012-11-29 21:35:00
2:55 PM,71.6,28.4,20,30.04,10.0,West,19.6,23.0,N/A,,Clear,270,2012-11-29 21:55:00
3:15 PM,71.6,28.4,20,30.04,10.0,West,18.4,-,N/A,,Clear,270,2012-11-29 22:15:00
3:35 PM,71.6,26.6,19,30.04,10.0,West,16.1,-,N/A,,Clear,260,2012-11-29 22:35:00
3:55 PM,69.8,26.6,20,30.04,10.0,West,15.0,-,N/A,,Clear,260,2012-11-29 22:55:00
4:15 PM,69.8,24.8,18,30.04,10.0,West,16.1,-,N/A,,Clear,270,2012-11-29 23:15:00
4:35 PM,66.2,23.0,19,30.05,10.0,West,13.8,-,N/A,,Clear,270,2012-11-29 23:35:00
4:55 PM,64.4,21.2,19,30.05,10.0,West,15.0,-,N/A,,Clear,260,2012-11-29 23:55:00
5:15 PM,62.6,21.2,20,30.05,10.0,West,13.8,-,N/A,,Clear,270,2012-11-30 00:15:00
5:35 PM,59.0,19.4,22,30.06,10.0,West,11.5,-,N/A,,Clear,260,2012-11-30 00:35:00
5:55 PM,57.2,19.4,23,30.06,10.0,West,8.1,-,N/A,,Clear,260,2012-11-30 00:55:00
6:15 PM,57.2,19.4,23,30.07,10.0,West,9.2,-,N/A,,Clear,260,2012-11-30 01:15:00
6:35 PM,55.4,19.4,25,30.08,10.0,West,11.5,-,N/A,,Clear,260,2012-11-30 01:35:00
6:55 PM,55.4,19.4,25,30.08,10.0,West,9.2,-,N/A,,Clear,260,2012-11-30 01:55:00
7:15 PM,55.4,19.4,25,30.08,10.0,West,12.7,-,N/A,,Clear,270,2012-11-30 02:15:00
7:35 PM,57.2,21.2,25,30.07,10.0,West,12.7,-,N/A,,Clear,260,2012-11-30 02:35:00
7:55 PM,57.2,21.2,25,30.07,10.0,West,16.1,-,N/A,,Clear,260,2012-11-30 02:55:00
8:15 PM,59.0,23.0,25,30.07,10.0,West,20.7,-,N/A,,Clear,270,2012-11-30 03:15:00
8:35 PM,57.2,21.2,25,30.07,10.0,West,17.3,24.2,N/A,,Clear,260,2012-11-30 03:35:00
8:55 PM,57.2,21.2,25,30.07,10.0,West,16.1,-,N/A,,Clear,270,2012-11-30 03:55:00
9:15 PM,57.2,23.0,27,30.08,10.0,West,16.1,-,N/A,,Clear,260,2012-11-30 04:15:00
9:35 PM,55.4,23.0,29,30.07,10.0,West,15.0,-,N/A,,Clear,260,2012-11-30 04:35:00
9:55 PM,55.4,23.0,29,30.07,10.0,West,18.4,23.0,N/A,,Clear,260,2012-11-30 04:55:00
10:15 PM,53.6,23.0,30,30.07,10.0,West,16.1,24.2,N/A,,Clear,270,2012-11-30 05:15:00
10:35 PM,53.6,23.0,30,30.07,10.0,West,17.3,-,N/A,,Clear,260,2012-11-30 05:35:00
10:55 PM,51.8,21.2,30,30.08,10.0,West,16.1,-,N/A,,Clear,270,2012-11-30 05:55:00
11:15 PM,51.8,23.0,33,30.08,10.0,West,17.3,-,N/A,,Clear,270,2012-11-30 06:15:00
11:35 PM,51.8,23.0,33,30.07,10.0,West,18.4,-,N/A,,Clear,270,2012-11-30 06:35:00
11:55 PM,50.0,21.2,32,30.07,10.0,West,16.1,-,N/A,,Clear,280,2012-11-30 06:55:00